Find Local Weather

World > North America > United States > New Jersey

Dorchester, New Jersey Regional Weather

Lat: 39.27N, Lon: 74.98W
Wx Zone: NJZ021
Feedback

Dorchester, NJ Regional Weather

Expires:201905260300;;465731
ASUS41 KOKX 260205
RWROKX

Regional Weather Roundup
National Weather Service New York NY
1000 PM EDT SAT MAY 25 2019

Note: "FAIR" indicates few or no clouds below 12,000 feet with no
significant weather and/or obstructions to visibility.


NJZ001-105-106-008-010-013-015-019>022-104-260300-
New Jersey
  
CITY           SKY/WX    TMP DP  RH WIND       PRES   REMARKS
Newark/Liberty MOCLDY    63  52  67 S14       30.06F                  
Teterboro      FAIR      63  51  65 S16G23    30.04F                  
Caldwell       FAIR      65  50  58 S5        30.05F                  
Somerville     FAIR      63  52  67 S6        30.04S                  
Linden         FAIR      63  50  63 S3        30.07S                  
Perth Amboy      N/A     63 N/A N/A S12         N/A                   
Sussex         CLOUDY    67  55  65 SW7       30.04S                  
Andover          N/A     65  53  65 VRB6      30.04S                  
Trenton        CLOUDY    62  51  67 S14       30.07S                  
Millville      FAIR      63  57  81 S8        30.08F                  
Atlantic City  FAIR      62  57  83 S9G23     30.10F                  
Wrightstown    MOCLDY    61  51  68 S7        30.07                   
Toms River     MOCLDY    61  55  81 S8        30.10F                  
Belmar         CLOUDY    61  54  77 S8G18     30.09F                  
$$
 

SKY/WX - Weather  TMP - Temperature  DP - Dew Point  RH - Relative Humidity
WIND - Wind Direction/Speed PRES - Barometric Pressure VSB - Visibility
WCI - Wind Chill Index E13G22 Wind - East Wind 13 mph/Gusts of 22 mph